******** Week 364 almanac for PRN-1 ******** ID: 1 Health: 0 Eccentricity: 0.001671791077 Time of Applicability(s): 319488 Orbital Inclination(rad): 0.9578895093 Rate of Right Ascen(r/s): -7.897471818e-09 SQRT(A) (m 1/2): 5153.571289 Right Ascen at Week(rad): 2.634810118 Argument of Perigee(rad): 0.1431354628 Mean Anom(rad): 1.562233973 Af0(s): 0.0002419294556 Af1(s/s): -7.275958e-12 week: 364 ******** Week 364 almanac for PRN-2 ******** ID: 2 Health: 0 Eccentricity: 0.01683282852 Time of Applicability(s): 319488 Orbital Inclination(rad): 0.9629828049 Rate of Right Ascen(r/s): -7.943188008e-09 SQRT(A) (m 1/2): 5153.530762 Right Ascen at Week(rad): 2.472431361 Argument of Perigee(rad): -0.7936957414 Mean Anom(rad): 3.071950077 Af0(s): 5.50182251e-05 Af1(s/s): 7.275958e-12 week: 364 ******** Week 364 almanac for PRN-3 ******** ID: 3 Health: 0 Eccentricity: 0.00661277771 Time of Applicability(s): 319488 Orbital Inclination(rad): 0.9939200815 Rate of Right Ascen(r/s): -7.451738966e-09 SQRT(A) (m 1/2): 5153.571777 Right Ascen at Week(rad): -2.660780683 Argument of Perigee(rad): 1.204564781 Mean Anom(rad): -0.5145359554 Af0(s): 0.0004099988281 Af1(s/s): -1.455192e-11 week: 364 ******** Week 364 almanac for PRN-4 ******** ID: 4 Health: 0 Eccentricity: 0.003719329834 Time of Applicability(s): 319488 Orbital Inclination(rad): 0.9705268745 Rate of Right Ascen(r/s): -8.126052768e-09 SQRT(A) (m 1/2): 5153.659668 Right Ascen at Week(rad): -1.590781521 Argument of Perigee(rad): -2.871671957 Mean Anom(rad): 2.44228392 Af0(s): 4.069841309e-05 Af1(s/s): 0 week: 364 ******** Week 364 almanac for PRN-5 ******** ID: 5 Health: 0 Eccentricity: 0.005450725555 Time of Applicability(s): 319488 Orbital Inclination(rad): 0.9804617969 Rate of Right Ascen(r/s): -7.566029441e-09 SQRT(A) (m 1/2): 5153.679199 Right Ascen at Week(rad): -2.720888312 Argument of Perigee(rad): 1.418087342 Mean Anom(rad): 3.113288537 Af0(s): -0.0001823891846 Af1(s/s): 0 week: 364 ******** Week 364 almanac for PRN-6 ******** ID: 6 Health: 0 Eccentricity: 0.003809928894 Time of Applicability(s): 319488 Orbital Inclination(rad): 0.9867115702 Rate of Right Ascen(r/s): -7.657461821e-09 SQRT(A) (m 1/2): 5153.61084 Right Ascen at Week(rad): 2.586181504 Argument of Perigee(rad): -0.5392223352 Mean Anom(rad): 0.7747778934 Af0(s): -0.0004838589111 Af1(s/s): 0 week: 364 ******** Week 364 almanac for PRN-7 ******** ID: 7 Health: 0 Eccentricity: 0.02067184448 Time of Applicability(s): 319488 Orbital Inclination(rad): 0.9511124301 Rate of Right Ascen(r/s): -7.908900866e-09 SQRT(A) (m 1/2): 5153.564453 Right Ascen at Week(rad): -0.5819798026 Argument of Perigee(rad): -1.982100169 Mean Anom(rad): -0.06464777776 Af0(s): -0.0001326466797 Af1(s/s): -3.637979e-12 week: 364 ******** Week 364 almanac for PRN-8 ******** ID: 8 Health: 0 Eccentricity: 0.01159906387 Time of Applicability(s): 319488 Orbital Inclination(rad): 0.9428552992 Rate of Right Ascen(r/s): -8.514640383e-09 SQRT(A) (m 1/2): 5153.637207 Right Ascen at Week(rad): 1.464287652 Argument of Perigee(rad): 0.5334084881 Mean Anom(rad): 2.749468441 Af0(s): 0.0003708077637 Af1(s/s): -7.275958e-12 week: 364 ******** Week 364 almanac for PRN-9 ******** ID: 9 Health: 0 Eccentricity: 0.003345489502 Time of Applicability(s): 319488 Orbital Inclination(rad): 0.9647384938 Rate of Right Ascen(r/s): -8.171768958e-09 SQRT(A) (m 1/2): 5153.69873 Right Ascen at Week(rad): -1.655257774 Argument of Perigee(rad): 2.056242075 Mean Anom(rad): -2.936496877 Af0(s): 0.0006029394531 Af1(s/s): -3.637979e-12 week: 364 ******** Week 364 almanac for PRN-10 ******** ID: 10 Health: 0 Eccentricity: 0.01093149185 Time of Applicability(s): 319488 Orbital Inclination(rad): 0.9934526967 Rate of Right Ascen(r/s): -7.428880871e-09 SQRT(A) (m 1/2): 5153.610352 Right Ascen at Week(rad): -2.663291004 Argument of Perigee(rad): -2.255887652 Mean Anom(rad): -1.509004915 Af0(s): -0.0004665244019 Af1(s/s): 0 week: 364 ******** Week 364 almanac for PRN-11 ******** ID: 11 Health: 0 Eccentricity: 0.002205371857 Time of Applicability(s): 319488 Orbital Inclination(rad): 0.9635940004 Rate of Right Ascen(r/s): -7.897471818e-09 SQRT(A) (m 1/2): 5153.541016 Right Ascen at Week(rad): 2.60431139 Argument of Perigee(rad): -2.320408472 Mean Anom(rad): 1.919040676 Af0(s): -0.0003059917725 Af1(s/s): 1.455192e-11 week: 364 ******** Week 364 almanac for PRN-12 ******** ID: 12 Health: 0 Eccentricity: 0.008945941925 Time of Applicability(s): 319488 Orbital Inclination(rad): 0.9594055138 Rate of Right Ascen(r/s): -7.851755628e-09 SQRT(A) (m 1/2): 5153.713379 Right Ascen at Week(rad): 0.5355570349 Argument of Perigee(rad): 1.568699088 Mean Anom(rad): -0.7538710385 Af0(s): -0.0004808442139 Af1(s/s): 0 week: 364 ******** Week 364 almanac for PRN-13 ******** ID: 13 Health: 0 Eccentricity: 0.01008749008 Time of Applicability(s): 319488 Orbital Inclination(rad): 0.9760875548 Rate of Right Ascen(r/s): -8.068907531e-09 SQRT(A) (m 1/2): 5153.612305 Right Ascen at Week(rad): -1.479688879 Argument of Perigee(rad): 0.9944434929 Mean Anom(rad): 2.516326581 Af0(s): 0.0005381234619 Af1(s/s): 0 week: 364 ******** Week 364 almanac for PRN-14 ******** ID: 14 Health: 0 Eccentricity: 0.006876468658 Time of Applicability(s): 319488 Orbital Inclination(rad): 0.9427714096 Rate of Right Ascen(r/s): -7.954617056e-09 SQRT(A) (m 1/2): 5153.609863 Right Ascen at Week(rad): 0.4804595609 Argument of Perigee(rad): -2.73537312 Mean Anom(rad): -0.8936947356 Af0(s): 0.0005863586182 Af1(s/s): 0 week: 364 ******** Week 364 almanac for PRN-15 ******** ID: 15 Health: 0 Eccentricity: 0.01664495468 Time of Applicability(s): 319488 Orbital Inclination(rad): 0.9427294648 Rate of Right Ascen(r/s): -8.377491813e-09 SQRT(A) (m 1/2): 5153.643066 Right Ascen at Week(rad): -1.800083013 Argument of Perigee(rad): 1.507129758 Mean Anom(rad): 1.754389035 Af0(s): 0.0003157895386 Af1(s/s): 3.637979e-12 week: 364 ******** Week 364 almanac for PRN-16 ******** ID: 16 Health: 0 Eccentricity: 0.01501893997 Time of Applicability(s): 319488 Orbital Inclination(rad): 0.958512689 Rate of Right Ascen(r/s): -7.863184676e-09 SQRT(A) (m 1/2): 5153.617676 Right Ascen at Week(rad): 0.5524765134 Argument of Perigee(rad): 0.9316581386 Mean Anom(rad): -2.492812783 Af0(s): 0.0001869112305 Af1(s/s): 7.275958e-12 week: 364 ******** Week 364 almanac for PRN-17 ******** ID: 17 Health: 0 Eccentricity: 0.01261663437 Time of Applicability(s): 319488 Orbital Inclination(rad): 0.9584827284 Rate of Right Ascen(r/s): -8.343204671e-09 SQRT(A) (m 1/2): 5153.549805 Right Ascen at Week(rad): 1.569509147 Argument of Perigee(rad): -1.116465747 Mean Anom(rad): 2.702093677 Af0(s): -8.064315185e-05 Af1(s/s): -1.091394e-11 week: 364 ******** Week 364 almanac for PRN-18 ******** ID: 18 Health: 0 Eccentricity: 0.005812644958 Time of Applicability(s): 319488 Orbital Inclination(rad): 0.9716653758 Rate of Right Ascen(r/s): -7.794610391e-09 SQRT(A) (m 1/2): 5153.587402 Right Ascen at Week(rad): 2.580724562 Argument of Perigee(rad): -2.870566412 Mean Anom(rad): 0.7186269311 Af0(s): -0.0003059917725 Af1(s/s): 1.091394e-11 week: 364 ******** Week 364 almanac for PRN-19 ******** ID: 19 Health: 0 Eccentricity: 0.01125669479 Time of Applicability(s): 319488 Orbital Inclination(rad): 0.9576438327 Rate of Right Ascen(r/s): -8.354633718e-09 SQRT(A) (m 1/2): 5153.66748 Right Ascen at Week(rad): 1.613401745 Argument of Perigee(rad): 2.944934146 Mean Anom(rad): -1.800078518 Af0(s): 0.000550182251 Af1(s/s): 0 week: 364 ******** Week 364 almanac for PRN-20 ******** ID: 20 Health: 0 Eccentricity: 0.002229690552 Time of Applicability(s): 319488 Orbital Inclination(rad): 0.9601365515 Rate of Right Ascen(r/s): -8.251772291e-09 SQRT(A) (m 1/2): 5153.695312 Right Ascen at Week(rad): -1.649792593 Argument of Perigee(rad): -1.946962422 Mean Anom(rad): -0.8151568667 Af0(s): 6.707701416e-05 Af1(s/s): 2.182787e-11 week: 364 ******** Week 364 almanac for PRN-21 ******** ID: 21 Health: 0 Eccentricity: 0.0008163452148 Time of Applicability(s): 319488 Orbital Inclination(rad): 0.9633243553 Rate of Right Ascen(r/s): -7.760323248e-09 SQRT(A) (m 1/2): 5153.733887 Right Ascen at Week(rad): -2.655438715 Argument of Perigee(rad): -0.2441995549 Mean Anom(rad): -1.123497866 Af0(s): 0.000326340979 Af1(s/s): 3.637979e-12 week: 364 ******** Week 364 almanac for PRN-22 ******** ID: 22 Health: 0 Eccentricity: 0.01204061508 Time of Applicability(s): 319488 Orbital Inclination(rad): 0.9579674068 Rate of Right Ascen(r/s): -7.851755628e-09 SQRT(A) (m 1/2): 5153.578613 Right Ascen at Week(rad): 0.5558320964 Argument of Perigee(rad): -0.992662712 Mean Anom(rad): -2.934160702 Af0(s): -2.034920654e-05 Af1(s/s): 7.275958e-12 week: 364 ******** Week 364 almanac for PRN-23 ******** ID: 23 Health: 0 Eccentricity: 0.006082057953 Time of Applicability(s): 319488 Orbital Inclination(rad): 0.9884432907 Rate of Right Ascen(r/s): -7.474597061e-09 SQRT(A) (m 1/2): 5153.66748 Right Ascen at Week(rad): -2.695504226 Argument of Perigee(rad): -2.738832067 Mean Anom(rad): -0.4370264828 Af0(s): 0.0004989323975 Af1(s/s): 3.637979e-12 week: 364 ******** Week 364 almanac for PRN-24 ******** ID: 24 Health: 0 Eccentricity: 0.01797103882 Time of Applicability(s): 319488 Orbital Inclination(rad): 0.9350535687 Rate of Right Ascen(r/s): -8.160339911e-09 SQRT(A) (m 1/2): 5153.589844 Right Ascen at Week(rad): -0.6910059142 Argument of Perigee(rad): 1.138993469 Mean Anom(rad): 0.9181601563 Af0(s): -4.371311035e-05 Af1(s/s): 1.818989e-11 week: 364 ******** Week 364 almanac for PRN-25 ******** ID: 25 Health: 0 Eccentricity: 0.01290082932 Time of Applicability(s): 319488 Orbital Inclination(rad): 0.9478227604 Rate of Right Ascen(r/s): -7.920329913e-09 SQRT(A) (m 1/2): 5153.66748 Right Ascen at Week(rad): 0.4414291874 Argument of Perigee(rad): 1.159123971 Mean Anom(rad): -0.8713381641 Af0(s): 0.0003421681396 Af1(s/s): -3.637979e-12 week: 364 ******** Week 364 almanac for PRN-26 ******** ID: 26 Health: 0 Eccentricity: 0.01102256775 Time of Applicability(s): 319488 Orbital Inclination(rad): 0.9286120479 Rate of Right Ascen(r/s): -8.046049436e-09 SQRT(A) (m 1/2): 5153.685059 Right Ascen at Week(rad): 0.3663663692 Argument of Perigee(rad): 0.7113510086 Mean Anom(rad): -1.69282008 Af0(s): -0.0002750911255 Af1(s/s): -3.637979e-12 week: 364 ******** Week 364 almanac for PRN-27 ******** ID: 27 Health: 0 Eccentricity: 0.01438379288 Time of Applicability(s): 319488 Orbital Inclination(rad): 0.9519393416 Rate of Right Ascen(r/s): -8.423208003e-09 SQRT(A) (m 1/2): 5153.607422 Right Ascen at Week(rad): 1.496594126 Argument of Perigee(rad): 0.8898695209 Mean Anom(rad): 2.856186092 Af0(s): -7.084538574e-05 Af1(s/s): -1.455192e-11 week: 364 ******** Week 364 almanac for PRN-28 ******** ID: 28 Health: 0 Eccentricity: 0.0003814697266 Time of Applicability(s): 319488 Orbital Inclination(rad): 0.962030059 Rate of Right Ascen(r/s): -7.863184676e-09 SQRT(A) (m 1/2): 5153.512207 Right Ascen at Week(rad): -0.607388232 Argument of Perigee(rad): -0.3016642879 Mean Anom(rad): 0.5498654504 Af0(s): -0.0004469288696 Af1(s/s): 7.275958e-12 week: 364 ******** Week 364 almanac for PRN-29 ******** ID: 29 Health: 0 Eccentricity: 0.0034532547 Time of Applicability(s): 319488 Orbital Inclination(rad): 0.9611372343 Rate of Right Ascen(r/s): -8.331775623e-09 SQRT(A) (m 1/2): 5153.684082 Right Ascen at Week(rad): 1.586329381 Argument of Perigee(rad): 2.750002863 Mean Anom(rad): 2.70193189 Af0(s): -0.0002750911255 Af1(s/s): 7.275958e-12 week: 364 ******** Week 364 almanac for PRN-30 ******** ID: 30 Health: 0 Eccentricity: 0.008162021637 Time of Applicability(s): 319488 Orbital Inclination(rad): 0.9363838177 Rate of Right Ascen(r/s): -8.091765626e-09 SQRT(A) (m 1/2): 5153.689453 Right Ascen at Week(rad): -0.5914098896 Argument of Perigee(rad): -2.297789371 Mean Anom(rad): -0.2720767346 Af0(s): 0.0001364150513 Af1(s/s): 1.455192e-11 week: 364 ******** Week 364 almanac for PRN-31 ******** ID: 31 Health: 0 Eccentricity: 0.01083278656 Time of Applicability(s): 319488 Orbital Inclination(rad): 0.9548934531 Rate of Right Ascen(r/s): -7.908900866e-09 SQRT(A) (m 1/2): 5153.533203 Right Ascen at Week(rad): -0.5576334752 Argument of Perigee(rad): 0.9406358211 Mean Anom(rad): -1.148478234 Af0(s): -0.0001251099365 Af1(s/s): 3.637979e-12 week: 364 ******** Week 364 almanac for PRN-32 ******** ID: 32 Health: 0 Eccentricity: 0.00938129425 Time of Applicability(s): 319488 Orbital Inclination(rad): 0.9677645106 Rate of Right Ascen(r/s): -8.160339911e-09 SQRT(A) (m 1/2): 5153.682617 Right Ascen at Week(rad): -1.638148795 Argument of Perigee(rad): -1.985771836 Mean Anom(rad): -2.870570158 Af0(s): -1.582716064e-05 Af1(s/s): 1.818989e-11 week: 364